[[{"header":{"parameterUnit":"m.s-1","parameterCategory":1,"la1":30.2991,"la2":30.254,"lo1":-89.0895,"lo2":-89.0444,"dy":0.0017,"dx":0.0017,"nx":28,"ny":28,"refTime":"2024-10-16T09:00:00:Z","depth":0,"parameterNumber":2,"parameterNumberName":"U-component_of_WINDS"},"data":[0,0,0,0,0,0,0,0,0,0,0,0,0,0,0,0,0,0,0,0,0,0,0,0,0,0,0,0,0,0,0,0,0,0,0,0,0,0,0,0,0,0,0,0,0,0,0,0,0,0,0,0,0,0,0,0,0,0,-3.0633,-3.0634,0,-3.0652,-3.0652,-3.0652,-3.0591,-3.0589,-3.0588,-3.0586,-3.0604,-3.0606,-3.0608,0,0,0,0,0,0,0,0,0,0,0,0,0,-3.0546,-3.0548,-3.0633,-3.0634,-3.0634,-3.0652,-3.0652,-3.0652,-3.0592,-3.0589,-3.0587,-3.0585,-3.0603,-3.0606,-3.0609,0,0,0,0,0,0,0,0,0,0,0,0,0,-3.0576,-3.0548,-3.0633,-3.0606,-3.0604,-3.0652,-3.0652,-3.0652,-3.0592,-3.0589,-3.0587,-3.0584,-3.0602,-3.0606,-3.0609,-3.0684,0,0,-3.0619,-3.062,0,0,0,0,0,0,0,0,-3.0574,-3.0579,-3.061,-3.0608,-3.0605,-3.0616,-3.0627,-3.0663,-3.0593,-3.0596,-3.0586,-3.0583,-3.061,-3.0613,-3.0622,-3.0685,-3.0686,-3.0619,-3.0621,-3.0623,-3.0624,0,0,0,0,0,0,0,-3.0572,-3.0578,-3.0641,-3.061,-3.0608,-3.0592,-3.0594,-3.0634,-3.0619,-3.0596,-3.0592,-3.0595,-3.0609,-3.0619,-3.0622,-3.0686,-3.0619,-3.0622,-3.0624,-3.0625,-3.0811,-3.0814,0,0,0,0,0,0,-3.0574,-3.0577,-3.064,-3.0641,-3.0583,-3.0596,-3.0598,-3.0616,-3.0618,-3.0616,-3.0597,-3.0592,-3.0615,-3.0618,-3.0623,-3.0711,-3.0623,-3.0626,-3.0628,-3.0808,-3.0812,-3.0815,0,0,0,0,0,0,-3.0572,-3.058,-3.0639,-3.0608,-3.0614,-3.0601,-3.0621,-3.0617,-3.0628,-3.0619,-3.0616,-3.0611,-3.0613,-3.0618,-3.0669,-3.0711,-3.0627,-3.063,-3.0805,-3.0809,-3.0813,-3.0889,0,0,0,0,0,0,-3.057,-3.058,-3.0608,-3.0609,-3.0616,-3.0686,-3.0624,-3.062,-3.0634,-3.0627,-3.0631,-3.0629,-3.0611,-3.0665,-3.0673,-3.0714,-3.0633,-3.0801,-3.0807,-3.0812,-3.0882,-3.0895,-3.0906,0,0,0,0,0,-3.0567,-3.0629,-3.061,-3.0618,-3.0652,-3.0689,-3.0693,-3.0672,-3.0637,-3.0666,-3.066,-3.0629,-3.0705,-3.067,-3.0679,-3.0722,-3.0798,-3.0805,-3.0812,-3.0877,-3.0893,-3.0906,0,0,0,0,0,0,-3.0634,-3.0628,-3.0608,-3.0672,-3.0681,-3.0678,-3.0714,-3.0689,-3.0708,-3.0701,-3.0673,-3.0675,-3.0731,-3.0731,-3.0693,-3.0794,-3.0746,-3.0754,-3.0793,-3.0807,-3.0819,-3.0818,-3.0635,0,0,0,0,0,-3.0656,-3.0687,-3.068,-3.0737,-3.0743,-3.0728,-3.0743,-3.0726,-3.0734,-3.0738,-3.0736,-3.0745,-3.0771,-3.0789,-3.0812,-3.0882,-3.0882,-3.0915,-3.0927,-3.0937,-3.0945,-3.0982,-3.0997,-3.0837,-3.0837,-3.0837,0,0,-3.0702,-3.0703,-3.0724,-3.075,-3.0756,-3.0788,-3.0732,-3.0768,-3.0792,-3.0744,-3.0792,-3.0791,-3.0799,-3.086,-3.0887,-3.0862,-3.0989,-3.0945,-3.0953,-3.0956,-3.099,-3.1005,-3.1019,-3.0841,-3.0841,-3.084,0,0,-3.0802,-3.0806,-3.0854,-3.0861,-3.0869,-3.0859,-3.0871,-3.0872,-3.0869,-3.0917,-3.0882,-3.0909,-3.0954,-3.0962,-3.0972,-3.1075,-3.1047,-3.1084,-3.1146,-3.1182,-3.1194,-3.1205,-3.1243,-3.1256,-3.1091,-3.1092,-3.1092,0,-3.0859,-3.0906,-3.0882,-3.0921,-3.0934,-3.0892,-3.094,-3.0947,-3.0963,-3.0973,-3.0945,-3.1001,-3.1004,-3.1066,-3.1091,-3.11,-3.1113,-3.1084,-3.1194,-3.1205,-3.1215,-3.125,-3.1265,-3.1096,-3.1096,-3.1095,-3.1095,0,-3.0975,-3.1009,-3.1046,-3.1063,-3.108,-3.1124,-3.1106,-3.1126,-3.1107,-3.1099,-3.1149,-3.115,-3.1173,-3.1187,-3.1168,-3.1246,-3.1231,-3.1199,-3.115,-3.1235,-3.1268,-3.1281,-3.1102,-3.1101,-3.1099,-3.1098,0,0,-3.1119,-3.1122,-3.1136,-3.1143,-3.115,-3.1175,-3.1216,-3.1239,-3.1257,-3.1269,-3.1303,-3.1342,-3.1313,-3.1324,-3.1307,-3.1338,-3.142,-3.1303,-3.1302,-3.1325,-3.1507,-3.1531,-3.1547,-3.1401,-3.1404,-3.1406,-3.1506,0,-3.1219,-3.129,-3.127,-3.1341,-3.1372,-3.1332,-3.1368,-3.1376,-3.1369,-3.1394,-3.1387,-3.1416,-3.1374,-3.1381,-3.141,-3.1404,-3.1457,-3.1397,-3.1433,-3.1435,-3.1433,-3.1564,-3.159,-3.1685,-3.1519,-3.1521,-3.1522,0,-3.1345,-3.1362,-3.1438,-3.1439,-3.1451,-3.1484,-3.1503,-3.1527,-3.1535,-3.1528,-3.154,-3.1516,-3.1556,-3.1506,-3.1561,-3.1521,-3.1534,-3.1534,-3.1537,-3.154,-3.1485,-3.1572,-3.1714,-3.1729,-3.1542,-3.1541,-3.1539,0,-3.1443,-3.1486,-3.1536,-3.1543,-3.1546,-3.157,-3.1572,-3.1577,-3.1592,-3.1608,-3.1618,-3.1638,-3.165,-3.1667,-3.1648,-3.1613,-3.1707,-3.1655,-3.1702,-3.1703,-3.1725,-3.1724,-3.1873,-3.1732,-3.1732,-3.1732,-3.1732,0,-3.1557,-3.1605,-3.158,-3.1611,-3.1663,-3.1638,-3.1691,-3.1688,-3.1693,-3.1722,-3.1688,-3.1717,-3.1691,-3.1717,-3.1702,-3.1751,-3.1756,-3.1752,-3.1747,-3.1755,-3.1756,-3.1764,-3.1758,-3.1736,-3.1735,-3.1734,-3.1733,0,-3.1677,-3.1662,-3.1714,-3.1712,-3.1713,-3.1751,-3.1749,-3.1778,-3.1769,-3.1807,-3.1814,-3.18,-3.1829,-3.1812,-3.1842,-3.1832,-3.1895,-3.1881,-3.1893,-3.189,-3.1938,-3.1934,-3.2098,-3.2119,-3.1965,-3.1966,-3.1968,0,-3.1751,-3.1787,-3.1788,-3.1806,-3.1811,-3.1839,-3.1854,-3.1831,-3.1848,-3.1859,-3.1887,-3.1912,-3.1932,-3.198,-3.1972,-3.1995,-3.1982,-3.2037,-3.1985,-3.1992,-3.1983,-3.1982,-3.1985,-3.2049,-3.205,-3.2052,-3.2053,0,-3.1884,-3.1875,-3.1898,-3.192,-3.1939,-3.1954,-3.1966,-3.1982,-3.1959,-3.198,-3.2009,-3.2024,-3.2054,-3.2081,-3.2099,-3.2101,-3.2074,-3.2069,-3.2082,-3.2091,-3.2096,-3.2094,-3.1923,-3.2066,-3.2065,-3.2064,-3.2063,-3.2063,-3.1984,-3.2014,-3.202,-3.2047,-3.2054,-3.2066,-3.2093,-3.2087,-3.2111,-3.2134,-3.2118,-3.2153,-3.2159,-3.2182,-3.2187,-3.2213,-3.2191,-3.2209,-3.2213,-3.2218,-3.2225,-3.2091,-3.2217,-3.2216,-3.2216,-3.2215,-3.2215,0,-3.2116,-3.2118,-3.2143,-3.2162,-3.2183,-3.2155,-3.2167,-3.2186,-3.2218,-3.2226,-3.2246,-3.2279,-3.2304,-3.2299,-3.2321,-3.2344,-3.2332,-3.235,-3.2349,-3.235,-3.2244,-3.2231,-3.236,-3.236,-3.236,-3.236,-3.236,-3.236,-3.2187,-3.2237,-3.2229,-3.2281,-3.2282,-3.2316,-3.2325,-3.2336,-3.2343,-3.2382,-3.2403,-3.2399,-3.2401,-3.2424,-3.2445,-3.2443,-3.2453,-3.2477,-3.247,-3.2371,-3.2357,-3.2344,-3.2332,-3.2479,-3.2479,-3.2574,-3.2575,-3.2575]},{"header":{"parameterUnit":"m.s-1","parameterCategory":1,"la1":30.2991,"la2":30.254,"lo1":-89.0895,"lo2":-89.0444,"dy":0.0017,"dx":0.0017,"nx":28,"ny":28,"refTime":"2024-10-16T09:00:00:Z","depth":0,"parameterNumber":3,"parameterNumberName":"V-component_of_WINDS"},"data":[0,0,0,0,0,0,0,0,0,0,0,0,0,0,0,0,0,0,0,0,0,0,0,0,0,0,0,0,0,0,0,0,0,0,0,0,0,0,0,0,0,0,0,0,0,0,0,0,0,0,0,0,0,0,0,0,0,0,-6.9762,-6.9763,0,-6.9814,-6.9814,-6.9815,-6.9762,-6.976,-6.9758,-6.9757,-6.9804,-6.9807,-6.981,0,0,0,0,0,0,0,0,0,0,0,0,0,-6.9614,-6.9617,-6.9762,-6.9763,-6.9764,-6.9814,-6.9814,-6.9815,-6.9763,-6.976,-6.9758,-6.9756,-6.9802,-6.9806,-6.981,0,0,0,0,0,0,0,0,0,0,0,0,0,-6.9673,-6.9618,-6.9762,-6.9744,-6.9743,-6.9813,-6.9814,-6.9815,-6.9763,-6.976,-6.9757,-6.9754,-6.9801,-6.9806,-6.981,-6.99,0,0,-6.9825,-6.9827,0,0,0,0,0,0,0,0,-6.967,-6.9679,-6.9746,-6.9745,-6.9744,-6.9779,-6.9779,-6.9843,-6.9764,-6.9755,-6.9756,-6.9753,-6.9797,-6.9802,-6.9818,-6.9902,-6.9904,-6.9825,-6.9828,-6.983,-6.9831,0,0,0,0,0,0,0,-6.9666,-6.9676,-6.9782,-6.9747,-6.9746,-6.9731,-6.9736,-6.9791,-6.9792,-6.9756,-6.9752,-6.9759,-6.9796,-6.9814,-6.9819,-6.9905,-6.9825,-6.9829,-6.9832,-6.9834,-7.0066,-7.0069,0,0,0,0,0,0,-6.9665,-6.9673,-6.9781,-6.9784,-6.9699,-6.9736,-6.9742,-6.9771,-6.9792,-6.9792,-6.9762,-6.9757,-6.9807,-6.9814,-6.982,-6.9928,-6.983,-6.9834,-6.9837,-7.0063,-7.0067,-7.007,0,0,0,0,0,0,-6.9662,-6.9675,-6.9779,-6.9728,-6.974,-6.9742,-6.9775,-6.9773,-6.9791,-6.9796,-6.9796,-6.978,-6.9805,-6.9814,-6.9881,-6.9929,-6.9837,-6.9841,-7.0059,-7.0064,-7.0069,-7.0143,0,0,0,0,0,0,-6.9658,-6.9674,-6.9709,-6.9729,-6.9743,-6.9841,-6.9778,-6.9776,-6.98,-6.9793,-6.9813,-6.9814,-6.9803,-6.9875,-6.9886,-6.9933,-6.9845,-7.0055,-7.0061,-7.0067,-7.0136,-7.015,-7.0161,0,0,0,0,0,-6.9653,-6.9727,-6.9711,-6.9725,-6.9787,-6.9843,-6.9851,-6.9839,-6.9804,-6.9839,-6.9842,-6.9813,-6.9922,-6.9882,-6.9894,-6.9944,-7.0052,-7.0059,-7.0067,-7.013,-7.0147,-7.0161,0,0,0,0,0,0,-6.971,-6.9729,-6.9712,-6.9795,-6.9818,-6.9834,-6.9878,-6.9857,-6.9889,-6.9882,-6.9864,-6.9869,-6.9941,-6.9949,-6.9905,-7.0032,-6.998,-6.9991,-7.0025,-7.004,-7.0053,-7.005,-6.9848,0,0,0,0,0,-6.9733,-6.9779,-6.9792,-6.9863,-6.9876,-6.9876,-6.9899,-6.9889,-6.9911,-6.992,-6.9929,-6.995,-6.9989,-7.0015,-7.0051,-7.0137,-7.014,-7.0177,-7.0189,-7.02,-7.0209,-7.0255,-7.0272,-7.0095,-7.0095,-7.0095,0,0,-6.9779,-6.9795,-6.9825,-6.9876,-6.9892,-6.9939,-6.9884,-6.9935,-6.9969,-6.9927,-6.9992,-6.9999,-7.0022,-7.01,-7.0134,-7.0108,-7.0259,-7.0209,-7.0218,-7.0221,-7.0265,-7.0281,-7.0296,-7.01,-7.0099,-7.0099,0,0,-6.9888,-6.9905,-6.9967,-6.9986,-7.0013,-7.0012,-7.0027,-7.0047,-7.0051,-7.0116,-7.0086,-7.0125,-7.0193,-7.0211,-7.0229,-7.0346,-7.032,-7.0358,-7.0424,-7.0469,-7.0483,-7.0495,-7.0538,-7.0553,-7.0367,-7.0367,-7.0367,0,-6.9942,-7.0013,-7.0001,-7.0056,-7.0079,-7.0046,-7.0108,-7.0126,-7.0162,-7.0178,-7.0149,-7.0234,-7.0247,-7.0329,-7.0358,-7.0373,-7.0389,-7.0356,-7.0482,-7.0495,-7.0506,-7.0546,-7.0562,-7.0372,-7.0371,-7.0371,-7.037,0,-7.0078,-7.0128,-7.0175,-7.0214,-7.0242,-7.03,-7.0296,-7.0325,-7.0312,-7.0314,-7.0381,-7.0396,-7.0435,-7.0453,-7.044,-7.0533,-7.0516,-7.0485,-7.0433,-7.0527,-7.0565,-7.058,-7.0378,-7.0376,-7.0375,-7.0374,0,0,-7.0224,-7.0258,-7.0275,-7.0293,-7.0321,-7.0358,-7.0414,-7.0454,-7.048,-7.0507,-7.0553,-7.0611,-7.0584,-7.0604,-7.0592,-7.0632,-7.0725,-7.0596,-7.0596,-7.062,-7.0829,-7.0853,-7.0871,-7.0708,-7.0711,-7.0713,-7.0827,0,-7.0335,-7.0435,-7.0427,-7.0521,-7.0566,-7.0536,-7.0584,-7.0606,-7.0609,-7.0647,-7.065,-7.0692,-7.0651,-7.0664,-7.0702,-7.0706,-7.0767,-7.0697,-7.075,-7.0752,-7.0746,-7.089,-7.0915,-7.1022,-7.0842,-7.0844,-7.0846,0,-7.0477,-7.0512,-7.0611,-7.0633,-7.0652,-7.0696,-7.0733,-7.077,-7.0794,-7.0793,-7.0817,-7.0799,-7.0854,-7.0801,-7.0877,-7.083,-7.0851,-7.0856,-7.086,-7.0864,-7.0805,-7.0899,-7.1056,-7.1072,-7.0869,-7.0867,-7.0865,0,-7.0575,-7.0645,-7.0714,-7.073,-7.0758,-7.079,-7.0802,-7.0823,-7.0848,-7.088,-7.0896,-7.0932,-7.0952,-7.0981,-7.0972,-7.0934,-7.105,-7.0996,-7.1051,-7.1051,-7.1077,-7.1075,-7.1239,-7.109,-7.1089,-7.1089,-7.1089,0,-7.0699,-7.0761,-7.0759,-7.0802,-7.087,-7.0859,-7.0927,-7.0935,-7.0954,-7.0996,-7.0971,-7.1011,-7.0998,-7.1037,-7.103,-7.1094,-7.1103,-7.1104,-7.1101,-7.1107,-7.1107,-7.112,-7.1113,-7.1093,-7.1092,-7.1092,-7.1091,0,-7.082,-7.0821,-7.0894,-7.0915,-7.0922,-7.0972,-7.0988,-7.1028,-7.1029,-7.1084,-7.1095,-7.1098,-7.1142,-7.1137,-7.1186,-7.1182,-7.1262,-7.125,-7.1255,-7.1252,-7.1308,-7.1303,-7.1487,-7.151,-7.1345,-7.1346,-7.1348,0,-7.09,-7.0947,-7.0974,-7.1002,-7.1018,-7.1062,-7.1089,-7.1079,-7.1107,-7.1139,-7.1174,-7.1217,-7.1251,-7.1324,-7.1329,-7.1366,-7.1356,-7.1417,-7.1361,-7.1365,-7.1357,-7.1355,-7.136,-7.1429,-7.143,-7.1432,-7.1433,0,-7.1042,-7.104,-7.108,-7.1121,-7.1154,-7.1185,-7.1213,-7.1236,-7.123,-7.1262,-7.1309,-7.1336,-7.1387,-7.143,-7.1466,-7.1476,-7.1454,-7.1451,-7.1466,-7.1472,-7.1473,-7.1474,-7.1286,-7.1447,-7.1446,-7.1445,-7.1444,-7.1443,-7.1145,-7.1186,-7.1212,-7.1258,-7.1278,-7.1306,-7.1344,-7.1352,-7.1391,-7.1434,-7.1426,-7.1478,-7.15,-7.1547,-7.1562,-7.1602,-7.1579,-7.16,-7.1605,-7.1611,-7.1618,-7.1467,-7.1608,-7.1607,-7.1607,-7.1607,-7.1606,0,-7.1286,-7.1301,-7.1344,-7.1385,-7.1421,-7.1399,-7.1429,-7.146,-7.1507,-7.1531,-7.1566,-7.1619,-7.1661,-7.167,-7.1709,-7.174,-7.173,-7.175,-7.1748,-7.1751,-7.1636,-7.1619,-7.1757,-7.1757,-7.1757,-7.1757,-7.1757,-7.1757,-7.1363,-7.1433,-7.1435,-7.1514,-7.1528,-7.1581,-7.1601,-7.1625,-7.1644,-7.1707,-7.1742,-7.1748,-7.1766,-7.1807,-7.1843,-7.1845,-7.1861,-7.1885,-7.1882,-7.1774,-7.1759,-7.1745,-7.1729,-7.1888,-7.1889,-7.1995,-7.1996,-7.1996]}]]